Погода в Томилино

Россия / Московская область     55°39′47″N   37°56′59″E
темп.,
°C
ветер,
м/с
пор.,
м/с
влажн.,
%
обл.,
%
осадки,
мм/ч
давл.,
гПа
погр.,
м
20 апреля, вт
вт2000:00+6в4851100 0.0 10241169
03:00+2всв41094100 0.2 1024444
06:00+3всв4106892 0.1 1023538
09:00+5в5860100 0.1 1022608
12:00+6в6967100 0.1 1021945
15:00+5в4881100 0.9 1020784
18:00+4всв41195100 3.1 1017996
21:00+3в41095100 4.4 1015792
21 апреля, ср
ср2100:00+3всв41096100 0.4 1012612
03:00+3св41097100 2.5 1008606
06:00+2св4997100 2.0 1004506
09:00+2сз3599100 3.3 1002237
12:00+3зюз4895100 0.3 1004578
15:00+4зюз4786100 0.4 1007865
18:00+4юз3885100 0.1 1009652
21:00+4ююз3689100 0.1 1011342
22 апреля, чт
чт2200:00+4ююз2792100 0.0 1012278
03:00+4ююз3791100 0.0 1013251
06:00+4ююз3790100 0.0 1014266
09:00+7ююз4674100 0.0 1015530
12:00+11ююз565341 0.1 10161511
15:00+12ююз4652100 0.3 10161691
18:00+12ю475530 0.0 10161000
21:00+8ююв5127716 0.0 1016421
23 апреля, пт
пт2300:00+7ююв412865 0.0 1016358
03:00+6ююв399464 0.0 1016250
06:00+6ююв3109467 0.0 1016267
09:00+11ю5107096 0.1 1016551
12:00+16ю611517 0.4 10151753
15:00+17ю71043100 1.3 10142635
18:00+15ююв71151100 0.0 10141101
21:00+12ююв513625 0.0 1013749
24 апреля, сб
сб2400:00+10юв515725 0.1 1012669
03:00+8юв5138284 0.2 1010477
06:00+8ююв5129199 0.4 1009568
09:00+9ю51183100 1.1 10071376
12:00+4з4994100 5.4 1010575
15:00+6зсз4676100 5.6 1009855
18:00+7з2464100 0.1 1009955
21:00+5зюз2577100 0.6 1009173